When you browse on this site, cookies collect data to enhance your experience and personalize the content and advertising you see.
Visit our Privacy Policy to learn more. By continuing to use the site, you agree to this use of cookies and data.
  • In Switzerland
  • List of Countries
  • For 7 days
  • Water Temperature
  • Weather Map
  • Weather Widgets
  • user-avatar
    Login

    Hourly Weather Miranda de Ebro

    Today, 23 September, Monday

    Time Temperature Precipitation Wind Pressure Humidity
    00:00 +13°C° 0 mm 1 mps 720 mmHg 84%
    01:00 +13°C° 0 mm 1 mps 719 mmHg 84%
    02:00 +13°C° 0 mm 1 mps 719 mmHg 84%
    03:00 +13°C° 0 mm 1 mps 719 mmHg 83%
    04:00 +13°C° 0 mm 1 mps 719 mmHg 82%
    05:00 +13°C° 0 mm 1 mps 719 mmHg 80%
    06:00 +13°C° 0 mm 1 mps 720 mmHg 79%
    07:00 +15°C° 0 mm 2 mps 720 mmHg 72%
    08:00 +16°C° 0 mm 2 mps 721 mmHg 65%
    09:00 +18°C° 0 mm 2 mps 721 mmHg 58%
    10:00 +19°C° 0 mm 3 mps 721 mmHg 53%
    11:00 +20°C° 0 mm 3 mps 721 mmHg 49%
    12:00 +21°C° 0 mm 3 mps 721 mmHg 45%
    13:00 +22°C° 0 mm 3 mps 720 mmHg 42%
    14:00 +22°C° 0 mm 3 mps 720 mmHg 40%
    15:00 +24°C° 0 mm 3 mps 720 mmHg 38%
    16:00 +23°C° 0 mm 2 mps 720 mmHg 41%
    17:00 +21°C° 0 mm 2 mps 720 mmHg 44%
    18:00 +21°C° 0 mm 1 mps 720 mmHg 47%
    19:00 +21°C° 0 mm 1 mps 720 mmHg 48%
    20:00 +20°C° 0 mm 1 mps 720 mmHg 49%
    21:00 +19°C° 0 mm 2 mps 720 mmHg 50%
    22:00 +18°C° 0 mm 2 mps 720 mmHg 52%
    23:00 +18°C° 0 mm 2 mps 719 mmHg 53%

    Tomorrow, 24 September, Tuesday

    Time Temperature Precipitation Wind Pressure Humidity
    00:00 +17°C° 0 mm 3 mps 719 mmHg 54%
    01:00 +17°C° 0 mm 3 mps 719 mmHg 55%
    02:00 +17°C° 0 mm 3 mps 719 mmHg 56%
    03:00 +17°C° 0 mm 3 mps 718 mmHg 57%
    04:00 +17°C° 0 mm 3 mps 718 mmHg 59%
    05:00 +16°C° 0 mm 3 mps 718 mmHg 62%
    06:00 +16°C° 0 mm 3 mps 719 mmHg 64%
    07:00 +17°C° 0 mm 3 mps 719 mmHg 63%
    08:00 +19°C° 0 mm 3 mps 719 mmHg 61%
    09:00 +20°C° 0 mm 3 mps 720 mmHg 60%
    10:00 +22°C° 0 mm 4 mps 720 mmHg 57%
    11:00 +23°C° 0 mm 5 mps 720 mmHg 54%
    12:00 +26°C° 0 mm 6 mps 720 mmHg 50%
    13:00 +26°C° 0 mm 6 mps 720 mmHg 50%
    14:00 +26°C° 0 mm 5 mps 719 mmHg 50%
    15:00 +26°C° 0 mm 5 mps 719 mmHg 50%
    16:00 +23°C° 0 mm 4 mps 719 mmHg 59%
    17:00 +21°C° 0 mm 3 mps 719 mmHg 68%
    18:00 +19°C° 0 mm 2 mps 719 mmHg 78%
    19:00 +18°C° 0 mm 2 mps 719 mmHg 81%
    20:00 +17°C° 0 mm 2 mps 719 mmHg 85%
    21:00 +16°C° 0 mm 1 mps 720 mmHg 88%
    22:00 +16°C° 0 mm 1 mps 720 mmHg 88%
    23:00 +16°C° 0 mm 1 mps 720 mmHg 88%

    Day after tomorrow, 25 September, Wednesday

    Time Temperature Precipitation Wind Pressure Humidity
    00:00 +16°C° 0 mm 1 mps 720 mmHg 89%
    01:00 +15°C° 0 mm 1 mps 719 mmHg 89%
    02:00 +15°C° 0 mm 1 mps 719 mmHg 88%
    03:00 +15°C° 0 mm 1 mps 719 mmHg 88%
    04:00 +15°C° 0 mm 1 mps 719 mmHg 87%
    05:00 +15°C° 0 mm 1 mps 719 mmHg 86%
    06:00 +15°C° 0 mm 1 mps 719 mmHg 86%
    07:00 +15°C° 0 mm 1 mps 720 mmHg 81%
    08:00 +16°C° 0 mm 1 mps 720 mmHg 76%
    09:00 +16°C° 0 mm 1 mps 721 mmHg 71%
    10:00 +19°C° 0 mm 1 mps 721 mmHg 64%
    11:00 +20°C° 0 mm 1 mps 721 mmHg 57%
    12:00 +22°C° 0 mm 1 mps 721 mmHg 50%
    13:00 +22°C° 0 mm 1 mps 721 mmHg 49%
    14:00 +21°C° 0 mm 2 mps 721 mmHg 48%
    15:00 +21°C° 0 mm 2 mps 720 mmHg 48%
    16:00 +20°C° 0 mm 2 mps 720 mmHg 54%
    17:00 +18°C° 0 mm 2 mps 720 mmHg 60%
    18:00 +17°C° 0 mm 2 mps 720 mmHg 66%
    19:00 +16°C° 0 mm 1 mps 720 mmHg 73%
    20:00 +15°C° 0 mm 1 mps 721 mmHg 80%
    21:00 +13°C° 0 mm 0 mps 721 mmHg 87%
    22:00 +12°C° 0 mm 0 mps 721 mmHg 88%
    23:00 +12°C° 0 mm 0 mps 721 mmHg 89%

    26 September, Thursday

    Time Temperature Precipitation Wind Pressure Humidity
    00:00 +12°C° 0 mm 0 mps 720 mmHg 90%
    01:00 +12°C° 0 mm 0 mps 720 mmHg 90%
    02:00 +12°C° 0 mm 0 mps 720 mmHg 90%
    03:00 +12°C° 0 mm 0 mps 721 mmHg 90%
    04:00 +11°C° 0 mm 0 mps 720 mmHg 89%
    05:00 +11°C° 0 mm 0 mps 720 mmHg 89%
    06:00 +11°C° 0 mm 0 mps 720 mmHg 89%
    07:00 +14°C° 0 mm 0 mps 721 mmHg 78%
    08:00 +16°C° 0 mm 0 mps 721 mmHg 67%
    09:00 +21°C° 0 mm 1 mps 722 mmHg 57%
    10:00 +23°C° 0 mm 1 mps 722 mmHg 51%
    11:00 +25°C° 0 mm 1 mps 722 mmHg 45%
    12:00 +27°C° 0 mm 1 mps 722 mmHg 39%
    13:00 +27°C° 0 mm 1 mps 722 mmHg 38%
    14:00 +28°C° 0 mm 2 mps 721 mmHg 37%
    15:00 +28°C° 0 mm 2 mps 721 mmHg 37%
    16:00 +26°C° 0 mm 2 mps 721 mmHg 46%
    17:00 +23°C° 0 mm 2 mps 721 mmHg 56%
    18:00 +20°C° 0 mm 2 mps 720 mmHg 66%
    19:00 +19°C° 0 mm 2 mps 721 mmHg 74%
    20:00 +18°C° 0 mm 1 mps 721 mmHg 82%
    21:00 +16°C° 0 mm 1 mps 721 mmHg 91%
    22:00 +16°C° 0 mm 1 mps 721 mmHg 91%
    23:00 +16°C° 0 mm 1 mps 721 mmHg 91%

    27 September, Friday

    Time Temperature Precipitation Wind Pressure Humidity
    00:00 +16°C° 0 mm 1 mps 721 mmHg 92%
    01:00 +16°C° 0 mm 1 mps 721 mmHg 91%
    02:00 +16°C° 0 mm 1 mps 721 mmHg 90%
    03:00 +16°C° 0 mm 1 mps 721 mmHg 89%
    04:00 +16°C° 0 mm 1 mps 721 mmHg 88%
    05:00 +16°C° 0 mm 1 mps 721 mmHg 88%
    06:00 +16°C° 0 mm 1 mps 721 mmHg 87%
    07:00 +18°C° 0 mm 1 mps 721 mmHg 81%
    08:00 +19°C° 0 mm 1 mps 722 mmHg 75%
    09:00 +20°C° 0 mm 1 mps 722 mmHg 69%
    10:00 +21°C° 0 mm 1 mps 722 mmHg 63%
    11:00 +21°C° 0 mm 2 mps 722 mmHg 57%
    12:00 +24°C° 0 mm 2 mps 722 mmHg 51%
    13:00 +24°C° 0 mm 2 mps 722 mmHg 50%
    14:00 +24°C° 0 mm 3 mps 721 mmHg 50%
    15:00 +24°C° 0 mm 3 mps 721 mmHg 50%
    16:00 +21°C° 0 mm 3 mps 721 mmHg 61%
    17:00 +19°C° 0 mm 3 mps 721 mmHg 72%
    18:00 +17°C° 0 mm 2 mps 721 mmHg 83%
    19:00 +16°C° 0 mm 2 mps 721 mmHg 86%
    20:00 +15°C° 0 mm 1 mps 722 mmHg 90%
    21:00 +15°C° 0 mm 1 mps 722 mmHg 94%
    22:00 +15°C° 0 mm 1 mps 722 mmHg 93%
    23:00 +14°C° 0 mm 1 mps 722 mmHg 93%

    28 September, Saturday

    Time Temperature Precipitation Wind Pressure Humidity
    00:00 +14°C° 0 mm 1 mps 722 mmHg 93%
    01:00 +14°C° 0 mm 1 mps 722 mmHg 94%
    02:00 +12°C° 0 mm 0 mps 721 mmHg 94%
    03:00 +12°C° 0 mm 0 mps 721 mmHg 95%
    04:00 +12°C° 0 mm 0 mps 721 mmHg 95%
    05:00 +11°C° 0 mm 0 mps 721 mmHg 95%
    06:00 +11°C° 0 mm 0 mps 721 mmHg 95%
    07:00 +13°C° 0 mm 0 mps 721 mmHg 87%
    08:00 +16°C° 0 mm 1 mps 721 mmHg 79%
    09:00 +19°C° 0 mm 1 mps 721 mmHg 71%
    10:00 +21°C° 0 mm 1 mps 721 mmHg 62%
    11:00 +23°C° 0 mm 1 mps 721 mmHg 53%
    12:00 +26°C° 0 mm 1 mps 721 mmHg 43%
    13:00 +26°C° 0 mm 2 mps 721 mmHg 41%
    14:00 +27°C° 0 mm 2 mps 720 mmHg 39%
    15:00 +28°C° 0 mm 2 mps 720 mmHg 37%
    16:00 +25°C° 0 mm 2 mps 719 mmHg 47%
    17:00 +23°C° 0 mm 2 mps 719 mmHg 57%
    18:00 +20°C° 0 mm 1 mps 718 mmHg 67%
    19:00 +19°C° 0 mm 1 mps 719 mmHg 74%
    20:00 +18°C° 0 mm 1 mps 719 mmHg 82%
    21:00 +15°C° 0 mm 1 mps 719 mmHg 89%
    22:00 +15°C° 0 mm 1 mps 719 mmHg 90%
    23:00 +15°C° 0 mm 1 mps 719 mmHg 91%
    Show more